Home > Time Zones > World Clock > Weather > Spain > Ceuta > Past weeks

Flag for Spain Weather past 2 weeks in Ceuta, Ceuta, Spain

Now
70 °F

Clear.


Feels Like: 70 °F
Forecast: 69 / 80 °F
Wind: 16 mph from Southwest

Location: Gibraltar Airport

Current Time: Aug 2, 2014 at 5:41:12 AM

Latest Report: Aug 2, 2014 at 4:50 AM


Visibility: N/A

Pressure: 29.92 "Hg

Humidity: 73%

Dew point: 61 °F

Location of CeutaLocation

Historic Weather in Ceuta — Graph

°F

Ceuta temperature yesterday

Maximum temperature yesterday: 75 °F (at 1:50 PM)
Minimum temperature yesterday: 68 °F (at 1:50 AM)
Average temperature yesterday: 71 °F

Past Weeks' High & Low Weather Summary

 TemperatureHumidityPressure
High84 °F (Jul 18, 2:50 PM)100% (Jul 22, 5:50 AM)30.09 "Hg (Jul 22, 5:50 AM)
Low64 °F (Jul 23, 6:50 AM)42% (Jul 20, 6:50 PM)29.80 "Hg (Jul 24, 4:50 PM)
Average74 °F69%29.96 "Hg
* Reported Jul 18 3:50 AM — Aug 2 3:50 AM, Ceuta, Weather by CustomWeather, © 2014

Note: Actual official high and low records may vary slightly from our data, if they occured in-between our weather recording intervals... More about our weather records

Advertising

Ceuta weather history for previous 24 hours

 ConditionsComfort  
Time TempWeatherWind HumidityBarometerVisibility
3:50 AM
Aug 2
68 °FClear.16 mph78%29.95 "HgN/A
2:50 AM70 °FClear.14 mph69%29.95 "HgN/A
1:50 AM70 °FClear.16 mph73%29.95 "HgN/A
12:50 AM70 °FClear.20 mph73%29.98 "HgN/A
11:50 PM
Aug 1
70 °FPassing clouds.15 mph73%29.98 "HgN/A
10:50 PM70 °FPassing clouds.12 mph73%29.98 "HgN/A
9:50 PM70 °FPassing clouds.17 mph69%29.95 "HgN/A
8:50 PM72 °FPassing clouds.22 mph65%29.92 "HgN/A
7:50 PM72 °FPassing clouds.14 mph69%29.92 "HgN/A
6:50 PM73 °FPassing clouds.20 mph65%29.95 "HgN/A
5:50 PM73 °FScattered clouds.18 mph61%29.95 "HgN/A
4:50 PM73 °FScattered clouds.22 mph61%29.95 "HgN/A
3:50 PM75 °FScattered clouds.21 mph57%29.95 "HgN/A
2:50 PM75 °FScattered clouds.20 mph57%29.98 "HgN/A
1:50 PM75 °FScattered clouds.21 mph54%29.98 "HgN/A
12:50 PM73 °FScattered clouds.21 mph61%29.98 "HgN/A
11:50 AM73 °FScattered clouds.18 mph61%29.98 "HgN/A
10:50 AM72 °FPassing clouds.20 mph65%29.98 "HgN/A
9:50 AM72 °FPassing clouds.16 mph65%29.98 "HgN/A
8:50 AM70 °FScattered clouds.17 mph73%29.98 "HgN/A
7:50 AM70 °FPassing clouds.20 mph73%29.95 "HgN/A
6:50 AM70 °FPassing clouds.17 mph73%29.95 "HgN/A
5:50 AM70 °FClear.25 mph73%29.95 "HgN/A
Weather by CustomWeather, © 2014

See weather overviewHow to use our weather pages